EHI
0 0 0 0 0 0 0 0 0 0 0 0 0 1 4 6 8 11 14 14 14 15 21 30 33 32 34 38 40 42 44 47 51 52 50 47 41 34 28 23 20 19 18 17
0 0 0 0 0 0 0 0 0 0 0 0 0 1 4 6 7 11 15 16 16 18 23 30 32 31 33 36 39 40 41 45 47 48 47 45 39 32 26 21 21 21 19 19
0 0 0 0 0 0 0 0 0 0 0 0 1 2 5 6 6 9 13 15 16 17 22 28 29 29 31 34 37 38 39 40 41 44 43 38 33 28 22 20 22 22 20 19
0 0 0 0 0 0 0 0 0 0 0 0 1 3 5 6 5 7 9 10 11 13 16 21 23 25 29 33 35 36 36 35 36 40 39 32 25 22 20 20 22 23 20 18
0 0 0 0 0 0 0 0 0 0 0 0 1 1 3 5 5 5 6 7 9 11 14 16 20 23 26 30 31 32 33 33 33 35 33 25 19 17 19 20 22 22 20 17
0 0 0 0 0 0 0 0 0 0 0 0 0 0 2 4 4 4 5 9 11 13 14 16 20 23 23 25 27 29 32 33 32 31 26 20 16 16 17 18 19 20 18 15
0 0 0 0 0 0 0 0 0 0 0 0 0 0 0 1 2 2 5 9 11 11 12 15 19 22 22 22 24 27 30 32 31 27 22 17 15 15 15 15 15 16 14 12
0 0 0 0 0 0 0 0 0 0 0 0 0 0 0 0 0 2 4 6 8 9 10 13 17 19 19 20 22 24 26 28 27 25 21 17 14 13 12 13 13 13 14 14
0 0 0 0 0 0 0 0 0 0 0 0 0 0 0 0 1 2 3 4 5 7 9 12 14 15 18 20 21 20 21 22 22 21 19 16 13 12 11 11 12 13 14 15
0 0 0 0 0 0 0 0 0 0 0 0 0 0 1 1 2 2 2 2 4 6 8 10 12 13 16 19 19 16 15 17 18 18 16 14 12 11 12 12 11 12 14 14
0 0 0 0 0 0 0 0 0 0 0 0 0 0 1 2 2 1 1 1 2 3 6 10 12 12 12 14 15 13 12 14 16 17 15 13 12 13 15 14 12 12 13 13
0 0 0 0 0 0 0 0 0 0 0 0 0 0 1 2 1 0 1 2 2 2 5 9 11 10 9 10 11 11 11 12 14 15 16 15 13 14 17 17 15 15 14 13
0 0 0 0 0 0 0 0 0 0 0 0 0 0 1 1 0 1 2 3 3 3 6 9 10 8 7 8 11 12 11 11 11 12 14 14 14 15 17 17 18 17 15 13
0 0 0 0 0 0 0 0 0 0 0 0 0 0 0 0 1 2 3 3 4 4 6 8 7 5 5 8 11 12 11 9 9 10 11 12 13 14 16 16 16 16 15 12
0 0 0 0 0 0 0 0 0 0 0 0 0 0 0 0 1 3 4 4 4 3 3 4 5 4 5 7 9 10 9 8 9 9 10 10 11 12 12 13 12 12 11 9
0 0 0 0 0 0 0 0 0 0 0 0 0 0 1 2 3 5 5 5 4 2 1 3 4 5 6 7 8 7 6 6 8 9 9 9 8 8 8 8 7 7 6 6
0 0 0 0 0 0 0 0 0 0 0 0 0 0 1 2 5 6 5 3 2 1 1 3 4 5 6 6 6 6 4 4 5 6 7 6 4 3 3 4 4 4 4 4
0 0 0 0 0 0 0 0 0 0 0 0 0 0 0 2 3 4 3 1 1 2 3 3 4 5 5 4 5 5 3 2 2 2 2 2 1 0 1 3 4 3 3 3
0 0 0 0 0 0 0 0 0 0 1 0 0 0 1 1 1 1 1 1 2 4 5 4 4 4 3 3 4 4 2 1 1 0 0 0 0 1 1 2 3 3 3 3
1 1 0 0 0 0 0 0 0 0 0 0 1 1 1 1 1 0 1 2 4 5 6 5 4 3 2 2 3 2 1 0 0 0 0 0 1 2 2 2 2 2 3 3
0 0 0 0 0 0 0 0 0 0 0 1 2 3 3 2 1 1 2 4 7 7 6 4 3 1 1 1 2 1 0 0 0 0 0 1 2 2 2 2 2 2 2 1
0 0 0 0 0 0 0 0 0 0 0 2 3 4 4 2 2 2 4 6 6 5 3 2 1 1 1 1 1 0 0 0 0 0 0 1 2 2 2 3 2 1 1 1
0 0 0 0 0 0 0 0 0 0 0 1 2 3 3 2 1 3 5 5 4 2 1 0 0 1 2 2 1 1 0 0 0 0 0 1 1 2 3 3 2 1 1 1
0 0 0 0 0 0 0 0 0 0 0 1 1 2 2 1 1 3 5 4 3 1 0 1 1 1 2 3 3 2 1 0 0 0 0 0 1 3 3 3 1 1 0 0
0 0 0 0 0 0 0 0 0 0 0 1 1 2 2 1 2 4 4 4 3 2 1 2 3 2 2 3 4 3 1 0 1 1 1 1 1 2 2 1 1 0 0 0
0 0 0 0 0 0 0 0 0 0 0 1 1 2 2 2 2 4 4 4 3 2 2 3 3 2 1 3 4 4 2 1 2 2 2 1 1 1 1 0 0 0 0 0
Wind_Speed
10 9 7 6 5 8 9 7 9 6 3 5 4 3 1 2 1 3 3 2 2 2 3 5 4 3 2 3 3 3 1 1 1 1 1 2 2 2 2 2 2 2 2 1
9 7 6 6 7 9 9 9 9 6 3 6 4 4 4 2 2 4 4 4 4 4 4 4 4 2 2 3 3 3 1 1 1 0 1 1 1 1 2 1 2 2 2 2
7 6 5 7 8 10 10 9 10 10 8 8 6 4 1 5 5 5 6 6 5 5 4 3 3 2 1 2 2 1 1 1 1 1 1 1 1 1 1 2 2 3 3 3
6 4 5 7 8 10 10 10 11 11 9 7 7 4 1 4 5 6 5 5 5 6 5 4 3 2 1 1 1 1 2 2 2 1 1 2 2 1 1 1 2 2 3 3
6 4 5 7 8 9 11 12 13 13 11 9 6 3 2 4 5 4 5 6 6 6 6 5 4 3 2 2 1 1 2 2 2 1 1 1 2 1 1 1 2 2 3 3
8 4 3 6 8 7 11 12 12 11 8 6 5 3 5 6 6 6 6 6 5 6 6 5 5 4 4 3 1 1 2 2 2 1 1 1 2 2 1 1 2 2 2 2
6 2 1 4 8 6 10 11 6 4 4 3 3 3 6 6 7 8 8 7 7 7 6 6 6 4 4 2 1 2 2 2 1 1 1 1 2 2 2 2 2 2 2 2
7 3 3 4 6 8 9 9 7 7 7 7 5 3 5 7 7 8 8 8 7 7 6 6 6 5 4 3 2 2 2 2 1 1 1 0 1 1 1 1 2 2 2 1
7 5 4 4 5 6 8 8 9 8 9 7 2 4 6 7 8 8 8 8 7 7 7 6 6 5 5 5 3 2 2 2 1 1 1 1 0 1 1 1 1 1 1 1
8 9 7 4 4 3 6 8 6 6 6 6 3 3 5 8 9 8 8 8 7 6 6 5 5 5 5 4 3 3 2 1 1 0 0 0 0 0 0 0 1 0 1 1
6 7 7 6 4 6 6 6 6 5 5 6 6 3 4 6 8 8 7 6 7 8 7 5 5 5 5 4 3 3 2 1 1 0 0 1 1 1 0 0 0 1 2 2
5 5 7 7 3 3 4 6 6 5 5 5 5 2 4 5 6 6 7 7 6 6 6 6 6 6 6 5 4 3 3 2 1 1 1 1 1 1 1 1 1 2 2 3
6 4 6 3 2 1 3 4 5 5 5 4 5 3 1 4 6 7 8 7 6 6 7 7 6 6 6 5 5 4 3 3 2 1 1 1 1 1 1 1 1 2 2 2
4 4 5 7 8 9 7 7 6 6 5 5 6 6 5 7 8 8 8 7 6 5 6 6 6 6 6 5 5 4 4 4 3 2 1 1 1 0 1 1 1 1 1 1
2 4 6 8 9 9 8 7 6 6 6 6 7 7 8 9 8 8 8 7 6 5 6 6 6 5 5 5 5 4 3 3 3 2 2 1 1 0 1 1 1 1 1 1
1 4 7 9 7 8 7 6 6 6 6 5 6 5 7 8 7 8 8 7 7 6 5 5 5 5 5 5 5 4 4 3 3 2 2 2 1 1 1 1 1 1 1 1
3 5 7 8 8 8 5 5 5 5 5 5 6 6 7 8 8 8 8 8 7 7 6 6 5 4 4 4 4 4 3 3 3 2 2 1 1 2 2 2 2 2 2 1
4 5 5 7 8 5 2 4 4 4 5 5 5 6 7 7 6 5 7 7 7 7 6 5 4 3 3 3 3 3 3 3 3 2 2 2 2 2 2 2 2 2 1 1
3 4 5 5 7 3 1 3 4 5 4 7 6 6 7 7 5 4 8 7 7 6 4 4 3 2 2 2 3 3 3 3 3 2 2 2 2 2 2 2 2 1 1 1
4 4 5 6 8 5 3 6 6 3 1 7 7 7 8 8 6 5 8 8 7 5 3 3 3 2 2 2 2 3 2 2 3 2 2 2 2 2 2 2 2 1 1 2
4 5 6 7 7 1 4 6 5 3 4 7 7 7 7 7 6 6 6 6 6 4 3 4 3 2 2 2 2 2 3 3 3 2 2 2 2 2 1 1 2 2 2 2
5 5 5 6 6 1 6 4 5 4 5 6 6 7 7 6 6 6 6 6 5 5 4 4 3 3 2 2 1 1 2 2 2 2 2 2 2 2 1 1 1 1 2 3
3 2 3 3 3 2 4 4 3 3 4 5 6 6 6 7 7 6 6 5 4 5 4 3 3 2 2 2 1 1 2 2 2 2 2 2 3 2 1 1 1 1 2 2
1 1 3 4 2 1 2 3 3 4 4 6 6 6 6 7 7 6 5 5 4 4 3 3 3 3 2 2 2 1 1 2 2 2 2 2 3 2 2 2 1 1 2 2
5 4 5 6 4 3 2 5 5 5 5 6 7 6 6 7 6 6 5 4 4 4 4 3 3 3 3 2 2 2 2 2 2 2 2 3 3 2 1 1 1 1 1 1
6 5 4 4 3 4 4 5 6 6 6 7 7 7 6 6 5 5 5 4 4 4 3 3 3 4 4 3 3 2 2 2 2 2 3 3 3 2 2 2 1 0 1 1
Wind_Direction
241 242 259 288 296 292 298 302 295 295 306 295 299 299 249 156 144 80 66 57 65 56 63 75 72 68 96 118 120 126 136 159 202 182 194 200 203 213 207 199 178 171 179 195
252 257 280 294 301 297 294 292 291 300 315 291 279 272 269 103 70 72 57 42 25 33 51 69 97 114 130 135 137 144 139 169 188 158 221 207 218 227 208 208 169 172 180 179
274 295 312 306 302 306 304 306 313 309 298 282 272 278 181 117 87 62 53 39 30 22 27 41 72 90 100 118 135 140 135 135 137 176 219 229 204 232 215 196 184 193 189 190
273 292 303 307 314 321 304 311 305 291 283 277 270 279 107 113 91 57 44 27 20 22 25 34 34 36 57 79 110 124 124 142 160 166 224 238 231 227 230 213 191 197 191 194
290 301 305 310 317 312 308 310 295 283 275 278 277 280 80 69 55 46 36 30 16 20 21 16 28 22 39 31 81 136 144 155 156 168 214 249 249 246 233 207 197 208 194 193
278 281 315 324 312 304 310 302 283 270 270 278 312 300 71 43 22 31 30 34 19 19 18 21 30 35 40 37 78 137 148 155 151 161 212 255 264 244 238 228 218 223 208 198
278 254 78 343 318 313 319 319 307 297 285 306 336 20 69 58 32 29 21 21 22 23 18 14 19 27 33 33 52 107 132 146 151 161 183 264 270 252 229 224 214 222 227 207
316 331 16 1 334 320 319 324 323 317 316 317 326 59 78 56 45 39 31 25 29 22 16 10 15 18 18 21 43 61 112 122 139 158 151 190 295 280 262 251 238 237 241 229
330 323 341 340 321 317 321 325 321 302 288 291 1 82 87 40 25 25 25 24 21 18 13 13 12 19 17 27 36 50 75 94 94 74 88 134 280 297 291 286 273 252 248 230
316 311 318 313 291 311 329 331 336 325 327 320 333 43 22 10 4 13 15 15 13 14 11 12 25 26 22 25 52 70 78 90 89 69 250 82 138 309 8 274 295 294 245 245
315 303 306 312 322 340 339 345 344 331 330 317 321 21 25 18 8 1 10 11 12 12 1 7 29 27 22 20 32 43 40 49 61 52 89 37 39 347 313 257 298 276 257 244
339 309 303 303 327 357 344 344 340 325 323 318 313 12 27 10 5 359 9 12 11 11 0 16 27 23 20 19 22 26 18 5 9 80 89 57 21 348 340 328 290 279 261 243
338 314 293 263 225 349 351 340 328 311 305 312 310 324 39 7 12 10 12 9 9 16 15 19 24 22 14 13 17 16 8 6 9 32 67 50 345 0 328 322 306 294 272 251
298 312 311 313 322 326 325 331 328 317 311 313 318 328 355 8 12 11 9 8 8 22 21 16 19 17 10 11 14 12 11 4 357 9 32 0 338 337 331 330 310 298 289 273
322 307 308 304 304 306 315 328 331 325 313 308 319 334 2 3 6 8 9 6 7 15 18 15 12 9 3 6 4 5 5 357 350 350 1 10 359 329 353 337 316 308 295 306
354 304 302 293 289 294 301 318 324 325 323 321 321 344 12 2 5 6 7 6 3 2 7 11 10 358 356 357 358 0 357 347 338 348 12 30 11 348 341 347 351 5 8 6
307 291 295 290 298 300 298 327 342 342 354 351 343 0 9 3 9 7 8 10 5 357 3 7 2 351 348 355 358 348 346 341 343 353 14 38 18 13 8 12 39 29 21 20
292 305 289 290 296 286 347 33 18 0 16 10 7 6 8 9 5 18 22 11 358 358 3 358 350 348 347 351 348 341 340 344 354 8 20 28 25 16 7 29 33 15 1 357
221 271 288 294 296 273 322 14 8 2 22 24 15 6 360 358 347 40 31 14 3 3 6 347 337 345 350 342 334 333 337 347 356 5 12 10 9 8 14 24 14 360 343 323
194 220 259 288 297 307 14 19 5 326 47 27 15 4 353 344 333 360 5 359 357 1 7 347 348 353 344 337 333 338 341 347 349 348 350 2 4 357 11 14 359 346 319 310
226 235 250 275 279 299 9 359 339 325 14 6 359 355 351 349 341 335 339 346 345 349 354 347 342 341 338 334 346 349 348 340 331 331 348 350 342 347 25 9 358 351 327 321
280 281 273 276 281 334 19 11 24 23 360 348 349 353 352 342 334 333 337 342 339 339 340 335 329 331 333 330 330 340 328 321 317 325 339 332 323 318 355 356 343 346 335 307
268 316 313 326 348 56 41 38 33 19 349 342 346 346 343 332 329 329 333 335 330 329 329 323 315 313 316 315 315 316 314 318 327 335 326 318 309 303 302 279 289 284 279 292
258 323 284 282 250 272 346 30 28 9 345 339 338 336 332 323 322 324 328 327 321 318 316 309 307 301 297 291 295 306 309 298 303 300 301 296 289 278 284 283 272 294 328 328
312 299 284 277 291 312 0 17 360 353 347 341 337 333 328 324 322 325 321 319 317 312 310 298 291 284 287 286 282 277 285 281 295 289 284 276 266 275 277 296 327 330 342 326
270 275 279 296 357 332 332 344 342 337 336 334 330 328 325 319 320 323 320 317 312 308 302 293 287 285 285 282 282 285 277 277 277 279 280 277 270 264 251 234 218 12 218 212